AEHF-5 (USA 292) (44481 NORAD) Tracking and Keplerian Element Data

This shows tracking and keplerian element data for the satellite.

Feedback or suggestion? Click here.




ElementValue
Catalog44481
NameAEHF-5 (USA 292)
Epoch Orbit11
Epoch Day228.97153406
Epoch Year2019
RAAN299.5916
Inclination8.15
Eccentricity0.1430454
Argument of Perigee181.0497
Mean Anonmoly53.2521
Mean Motion1.24713599
Decay Rate-1.31E-06
L11 44481U 19051A 19228.97153406 -.00000131 00000-0 00000-0 0 9990
L22 44481 8.1500 299.5916 1430454 181.0497 53.2521 1.24713599 110

Live tracking and technical data element details for AEHF-5 (USA 292) (NORAD 44481). AEHF-5 (USA 292) can be tracked NOW for your location showing map with azimuth and elevation plus other details from your city location.

Track the satellite on the map from your city or location and see movement details for azimuth, elevation, latitude, longitude, range, height, and movement on the map or in text.







IsCatalogInMostPopularTable: catalog: 44481, numindb: 2
Update: records affected: 1



GetName: 44481 AEHF-5 (USA 292)

Hit Count: updated at: Wed, 21 Aug 2019 11:37:21 GMT